Regional Weather Roundup
Issued by NWS

Home | Current Version | Previous Version | Text Only | Print | Product List | Glossary Off
Versions: 1 2 3 4 5 6 7 8 9 10 11 12 13 14 15 16 17 18 19 20 21 22 23 24 25 26 27 28 29 30 31 32 33 34 35 36 37 38 39 40 41 42 43 44 45 46 47 48 49 50

000
ASUS45 KBOI 300810
RWRID
WEATHER ROUNDUP FOR IDAHO
NATIONAL WEATHER SERVICE BOISE ID
200 AM MDT WED JUL 30 2014

NOTE: "FAIR" INDICATES FEW OR NO CLOUDS BELOW 12000 FEET
WITH NO SIGNIFICANT WEATHER AND/OR OBSTRUCTIONS TO VISIBILITY

IDZ012-014-300900-
SOUTHWEST IDAHO


CITY           SKY/WX    TMP DP  RH WIND       PRES   REMARKS
BOISE          PTCLDY    74  54  49 SE16      30.12S
CALDWELL       PTCLDY    75  48  38 SE15G21   30.11F
MOUNTAIN HOME  MOCLDY    71  57  61 E8        30.14F
$$

IDZ016-017-300900-
SOUTHCENTRAL IDAHO


CITY           SKY/WX    TMP DP  RH WIND       PRES   REMARKS
BURLEY         CLOUDY    63  54  72 SW3       30.19S
JEROME         CLOUDY    62  57  83 N6        30.21S
TWIN FALLS     CLOUDY    69  52  54 N9        30.20R
$$

IDZ019>023-300900-
SOUTHEAST IDAHO


CITY           SKY/WX    TMP DP  RH WIND       PRES   REMARKS
IDAHO FALLS    CLOUDY    61  54  77 N6        30.23S
POCATELLO      CLEAR     59  56  89 W3        30.21S
REXBURG        CLOUDY    61  51  70 NE7       30.23F
$$

IDZ006-010-011-018-031-032-300900-
CENTRAL IDAHO MOUNTAINS


CITY           SKY/WX    TMP DP  RH WIND       PRES   REMARKS
MCCALL         PTCLDY    62  37  39 CALM      30.23R
HAILEY         CLOUDY    61  54  77 W12       30.28F
STANLEY          N/A     59  45  59 CALM      30.36S
SALMON         MOCLDY    61  52  72 CALM      30.20S
CHALLIS        MOCLDY    66  46  48 NW5       30.25S
$$

IDZ002-004-006-007-026-300900-
NORTHERN IDAHO


CITY           SKY/WX    TMP DP  RH WIND       PRES   REMARKS
LEWISTON       PTCLDY    80  34  19 S8        29.97R
LOWELL           N/A     65  57  75 CALM      30.04R
COEUR D`ALENE  CLEAR     63  52  67 E6        30.02R
MULLAN PASS    CLEAR     71  35  26 SE5       30.29F
$$



USA.gov is the U.S. government's official web portal to all federal, state and local government web resources and services.